Location: Newark
(48.2308°N, 120.8549°W)
Time: 18:25:45
(UTC+00:00)

ISS - Visible Passes

Search period start: 15 May 2021 00:00
Search period end: 25 May 2021 00:00
Orbit: 417 x 422 km, 51.6° (Epoch: 15 May)

Date Brightness Start Highest point End Pass type
(mag) Time Alt. Az. Time Alt. Az. Time Alt. Az.
15 May -2.2 04:34:21 10° S 04:36:40 18° SE 04:39:00 10° E visible
15 May -3.9 06:09:43 10° WSW 06:13:05 83° SSE 06:16:29 10° ENE visible
15 May -2.7 07:46:49 10° W 07:50:05 45° N 07:53:22 10° ENE visible
15 May -3.3 09:23:51 10° WNW 09:27:13 62° NNE 09:30:34 10° E visible
15 May -3.2 11:00:48 10° WNW 11:03:56 35° SW 11:07:02 10° SSE visible
16 May -3.8 05:22:21 10° SW 05:25:40 58° SSE 05:28:59 10° ENE visible
16 May -2.9 06:59:15 10° W 07:02:33 50° N 07:05:52 10° ENE visible
16 May -3.0 08:36:23 10° WNW 08:39:42 52° N 08:43:01 10° E visible
16 May -3.7 10:13:15 10° WNW 10:16:34 52° SSW 10:19:51 10° SE visible
17 May -3.3 04:35:07 10° SW 04:38:17 39° SSE 04:41:27 10° ENE visible
17 May -3.2 06:11:42 10° W 06:15:02 59° NNW 06:18:23 10° ENE visible
17 May -2.7 07:48:53 10° WNW 07:52:10 46° N 07:54:23 18° ENE visible
17 May -2.0 09:25:46 10° WNW 09:33:42 - ESE 09:27:10 23° WNW visible
17 May -1.6 11:07:12 12° S 11:07:12 12° S 11:07:36 10° S visible
18 May -3.6 05:24:10 10° WSW 05:27:31 74° NNW 05:30:55 10° ENE visible
18 May -2.6 07:01:21 10° WNW 07:04:37 44° N 07:07:21 14° ENE visible
18 May -2.4 08:38:17 10° WNW 08:40:15 32° WNW 08:40:15 32° WNW visible
19 May -3.8 04:36:41 10° WSW 04:40:03 83° SSE 04:43:26 10° ENE visible
19 May -2.6 06:13:47 10° W 06:17:03 45° N 06:20:20 10° ENE visible
19 May -3.3 07:50:49 10° WNW 07:53:57 60° N 07:53:57 60° N visible
20 May -2.8 05:26:13 10° W 05:29:30 50° N 05:32:48 10° ENE visible
20 May -3.0 07:03:20 10° WNW 07:06:39 52° N 07:07:48 33° ENE visible
20 May -1.2 08:40:12 10° WNW 08:40:44 14° WNW 08:40:44 14° WNW visible
21 May -3.1 04:38:38 10° W 04:41:58 58° NNW 04:45:18 10° ENE visible
21 May -2.7 06:15:49 10° WNW 06:19:06 46° N 06:21:43 15° ENE visible
21 May -2.4 07:52:42 10° WNW 07:54:39 32° WNW 07:54:39 32° WNW visible
22 May -2.6 05:28:16 10° WNW 05:31:31 44° N 05:34:47 10° ENE visible
22 May -3.8 07:05:12 10° WNW 07:08:35 80° NNE 07:08:36 80° NNE visible
23 May -2.6 04:40:41 10° W 04:43:57 45° N 04:47:14 10° ENE visible
23 May -3.4 06:17:44 10° WNW 06:21:05 63° NNE 06:22:35 29° E visible
23 May -1.4 07:54:40 10° WNW 07:55:32 16° W 07:55:32 16° W visible
24 May -3.0 05:30:13 10° WNW 05:33:32 52° N 05:36:37 11° E visible
24 May -2.9 07:07:05 10° WNW 07:09:33 39° WSW 07:09:33 39° WSW visible
